Time,TemperatureF,DewpointF,PressureIn,WindDirection,WindDirectionDegrees,WindSpeedMPH,WindSpeedGustMPH,Humidity,HourlyPrecipIn,Conditions,Clouds,dailyrainin,SoftwareType,DateUTC
2013-03-25 00:00:00,75.1,72.9,29.79,WNW,290,5.0,5.0,93,0.00,,,0.00,Wunderground v.1.15,2013-03-25 04:00:00,
2013-03-25 00:05:00,75.1,72.9,29.79,WNW,290,5.0,6.0,93,0.00,,,0.00,Wunderground v.1.15,2013-03-25 04:05:00,
2013-03-25 00:10:00,75.1,72.9,29.79,WNW,287,5.0,7.0,93,0.00,,,0.00,Wunderground v.1.15,2013-03-25 04:10:00,
2013-03-25 00:15:00,75.1,72.9,29.78,WNW,292,6.0,7.0,93,0.00,,,0.00,Wunderground v.1.15,2013-03-25 04:15:00,
2013-03-25 00:25:00,74.9,72.7,29.79,WNW,292,6.0,9.0,93,0.00,,,0.00,Wunderground v.1.15,2013-03-25 04:25:00,
2013-03-25 00:30:00,74.8,72.6,29.78,WNW,292,6.0,8.0,93,0.00,,,0.00,Wunderground v.1.15,2013-03-25 04:30:00,
2013-03-25 00:35:00,74.8,73.0,29.78,WNW,291,7.0,8.0,94,0.00,,,0.00,Wunderground v.1.15,2013-03-25 04:35:00,
2013-03-25 00:40:00,74.8,73.0,29.78,WNW,292,7.0,7.0,94,0.00,,,0.00,Wunderground v.1.15,2013-03-25 04:40:00,
2013-03-25 00:45:00,74.8,73.0,29.79,WNW,290,6.0,7.0,94,0.00,,,0.00,Wunderground v.1.15,2013-03-25 04:45:00,
2013-03-25 00:55:00,75.0,73.2,29.79,WNW,294,8.0,9.0,94,0.00,,,0.00,Wunderground v.1.15,2013-03-25 04:55:00,
2013-03-25 01:00:00,75.1,73.3,29.79,WNW,290,8.0,10.0,94,0.00,,,0.00,Wunderground v.1.15,2013-03-25 05:00:00,
2013-03-25 01:10:00,75.2,73.0,29.79,WNW,292,6.0,10.0,93,0.00,,,0.00,Wunderground v.1.15,2013-03-25 05:10:00,
2013-03-25 01:15:00,75.2,73.0,29.79,WNW,292,6.0,10.0,93,0.00,,,0.00,Wunderground v.1.15,2013-03-25 05:15:00,
2013-03-25 01:20:00,75.3,73.1,29.79,WNW,299,7.0,10.0,93,0.00,,,0.00,Wunderground v.1.15,2013-03-25 05:20:00,
2013-03-25 01:30:00,75.3,73.1,29.79,WNW,296,8.0,10.0,93,0.00,,,0.00,Wunderground v.1.15,2013-03-25 05:30:00,
2013-03-25 01:35:00,75.3,73.1,29.79,WNW,296,9.0,10.0,93,0.00,,,0.00,Wunderground v.1.15,2013-03-25 05:35:00,
2013-03-25 01:40:00,75.3,73.1,29.79,WNW,296,7.0,10.0,93,0.00,,,0.00,Wunderground v.1.15,2013-03-25 05:40:00,
2013-03-25 01:45:00,75.2,73.0,29.78,WNW,294,7.0,10.0,93,0.00,,,0.00,Wunderground v.1.15,2013-03-25 05:45:00,
2013-03-25 01:50:00,75.2,73.0,29.79,WNW,288,7.0,11.0,93,0.00,,,0.00,Wunderground v.1.15,2013-03-25 05:50:00,
2013-03-25 01:55:00,75.2,73.0,29.79,WNW,296,8.0,11.0,93,0.00,,,0.00,Wunderground v.1.15,2013-03-25 05:55:00,
2013-03-25 02:00:00,75.2,73.0,29.79,WNW,298,8.0,12.0,93,0.00,,,0.00,Wunderground v.1.15,2013-03-25 06:00:00,
2013-03-25 02:10:00,75.1,72.9,29.79,WNW,291,7.0,7.0,93,0.00,,,0.00,Wunderground v.1.15,2013-03-25 06:10:00,
2013-03-25 02:15:00,75.1,72.9,29.79,WNW,286,7.0,9.0,93,0.00,,,0.00,Wunderground v.1.15,2013-03-25 06:15:00,
2013-03-25 02:20:00,75.1,72.9,29.79,WNW,283,7.0,12.0,93,0.00,,,0.00,Wunderground v.1.15,2013-03-25 06:20:00,
2013-03-25 02:25:00,75.0,72.8,29.79,WNW,290,7.0,12.0,93,0.00,,,0.00,Wunderground v.1.15,2013-03-25 06:25:00,
2013-03-25 02:30:00,75.0,72.8,29.79,WNW,288,7.0,7.0,93,0.00,,,0.00,Wunderground v.1.15,2013-03-25 06:30:00,
2013-03-25 02:40:00,74.8,72.3,29.79,WNW,288,7.0,12.0,92,0.00,,,0.00,Wunderground v.1.15,2013-03-25 06:40:00,
2013-03-25 02:45:00,74.7,72.2,29.79,WNW,298,8.0,12.0,92,0.00,,,0.00,Wunderground v.1.15,2013-03-25 06:45:00,
2013-03-25 02:50:00,74.6,72.1,29.79,WNW,285,8.0,12.0,92,0.00,,,0.00,Wunderground v.1.15,2013-03-25 06:50:00,
2013-03-25 02:55:00,74.4,72.2,29.79,West,273,7.0,12.0,93,0.00,,,0.00,Wunderground v.1.15,2013-03-25 06:55:00,
2013-03-25 03:00:00,74.4,72.2,29.80,WNW,296,6.0,6.0,93,0.00,,,0.00,Wunderground v.1.15,2013-03-25 07:00:00,
2013-03-25 03:10:00,74.0,71.5,29.79,NW,319,9.0,13.0,92,0.00,,,0.00,Wunderground v.1.15,2013-03-25 07:10:00,
2013-03-25 03:15:00,73.6,71.1,29.79,NW,315,12.0,13.0,92,0.00,,,0.00,Wunderground v.1.15,2013-03-25 07:15:00,
2013-03-25 03:20:00,73.4,70.9,29.79,NW,321,11.0,13.0,92,0.00,,,0.00,Wunderground v.1.15,2013-03-25 07:20:00,
2013-03-25 03:25:00,73.3,70.8,29.79,NW,308,10.0,13.0,92,0.00,,,0.00,Wunderground v.1.15,2013-03-25 07:25:00,
2013-03-25 03:30:00,73.1,70.6,29.79,WNW,298,10.0,11.0,92,0.00,,,0.00,Wunderground v.1.15,2013-03-25 07:30:00,
2013-03-25 03:35:00,73.0,70.5,29.79,NW,309,9.0,14.0,92,0.00,,,0.00,Wunderground v.1.15,2013-03-25 07:35:00,
2013-03-25 03:45:00,72.5,70.0,29.79,NW,306,8.0,10.0,92,0.00,,,0.00,Wunderground v.1.15,2013-03-25 07:45:00,
2013-03-25 03:50:00,72.4,70.3,29.78,NW,313,7.0,7.0,93,0.00,,,0.00,Wunderground v.1.15,2013-03-25 07:50:00,
2013-03-25 03:55:00,72.2,70.1,29.78,NW,317,5.0,7.0,93,0.00,,,0.00,Wunderground v.1.15,2013-03-25 07:55:00,
2013-03-25 04:00:00,72.1,70.0,29.78,NW,316,5.0,5.0,93,0.00,,,0.00,Wunderground v.1.15,2013-03-25 08:00:00,
2013-03-25 04:10:00,71.8,69.7,29.78,NW,315,3.0,8.0,93,0.00,,,0.00,Wunderground v.1.15,2013-03-25 08:10:00,
2013-03-25 04:20:00,71.5,69.7,29.78,NW,315,5.0,6.0,94,0.00,,,0.00,Wunderground v.1.15,2013-03-25 08:20:00,
2013-03-25 04:25:00,71.4,69.6,29.78,NW,315,4.0,6.0,94,0.00,,,0.00,Wunderground v.1.15,2013-03-25 08:25:00,
2013-03-25 04:30:00,71.3,69.5,29.78,NW,315,4.0,6.0,94,0.00,,,0.00,Wunderground v.1.15,2013-03-25 08:30:00,
2013-03-25 04:35:00,71.3,69.5,29.78,NW,315,4.0,6.0,94,0.00,,,0.00,Wunderground v.1.15,2013-03-25 08:35:00,
2013-03-25 04:40:00,71.2,69.4,29.77,NW,315,4.0,4.0,94,0.00,,,0.00,Wunderground v.1.15,2013-03-25 08:40:00,
2013-03-25 04:50:00,71.0,69.5,29.78,NW,315,2.0,6.0,95,0.00,,,0.00,Wunderground v.1.15,2013-03-25 08:50:00,
2013-03-25 04:55:00,71.0,69.5,29.78,NW,315,2.0,6.0,95,0.00,,,0.00,Wunderground v.1.15,2013-03-25 08:55:00,
2013-03-25 05:00:00,70.9,69.4,29.78,NW,315,2.0,2.0,95,0.00,,,0.00,Wunderground v.1.15,2013-03-25 09:00:00,
2013-03-25 05:10:00,70.6,69.1,29.78,NW,314,2.0,5.0,95,0.00,,,0.00,Wunderground v.1.15,2013-03-25 09:10:00,
2013-03-25 05:20:00,70.4,68.9,29.77,NW,314,3.0,3.0,95,0.00,,,0.00,Wunderground v.1.15,2013-03-25 09:20:00,
2013-03-25 05:25:00,70.4,68.9,29.78,NW,314,1.0,5.0,95,0.00,,,0.00,Wunderground v.1.15,2013-03-25 09:25:00,
2013-03-25 05:30:00,70.3,68.8,29.78,NW,314,0.0,5.0,95,0.00,,,0.00,Wunderground v.1.15,2013-03-25 09:30:00,
2013-03-25 05:35:00,70.3,68.8,29.79,NW,314,0.0,5.0,95,0.00,,,0.00,Wunderground v.1.15,2013-03-25 09:35:00,
2013-03-25 05:40:00,70.2,68.7,29.79,NW,314,0.0,5.0,95,0.00,,,0.00,Wunderground v.1.15,2013-03-25 09:40:00,
2013-03-25 05:45:00,70.0,68.5,29.79,NW,314,0.0,5.0,95,0.00,,,0.00,Wunderground v.1.15,2013-03-25 09:45:00,
2013-03-25 05:50:00,70.0,68.2,29.79,NW,314,0.0,5.0,94,0.00,,,0.00,Wunderground v.1.15,2013-03-25 09:50:00,
2013-03-25 06:00:00,70.4,67.0,29.79,NW,309,6.0,9.0,89,0.00,,,0.00,Wunderground v.1.15,2013-03-25 10:00:00,
2013-03-25 06:10:00,69.8,66.4,29.79,NW,309,7.0,10.0,89,0.00,,,0.00,Wunderground v.1.15,2013-03-25 10:10:00,
2013-03-25 06:15:00,69.5,66.1,29.79,NW,308,7.0,10.0,89,0.00,,,0.00,Wunderground v.1.15,2013-03-25 10:15:00,
2013-03-25 06:20:00,69.3,65.9,29.79,NW,313,7.0,7.0,89,0.00,,,0.00,Wunderground v.1.15,2013-03-25 10:20:00,
2013-03-25 06:25:00,69.2,65.8,29.79,NW,319,6.0,9.0,89,0.00,,,0.00,Wunderground v.1.15,2013-03-25 10:25:00,
2013-03-25 06:30:00,69.0,65.6,29.79,NW,318,5.0,9.0,89,0.00,,,0.00,Wunderground v.1.15,2013-03-25 10:30:00,
2013-03-25 06:35:00,68.9,65.5,29.80,NW,315,6.0,9.0,89,0.00,,,0.00,Wunderground v.1.15,2013-03-25 10:35:00,
2013-03-25 06:40:00,68.7,65.3,29.80,NW,315,6.0,9.0,89,0.00,,,0.00,Wunderground v.1.15,2013-03-25 10:40:00,
2013-03-25 06:45:00,68.6,65.2,29.80,NW,318,5.0,9.0,89,0.00,,,0.00,Wunderground v.1.15,2013-03-25 10:45:00,
2013-03-25 06:50:00,68.4,65.0,29.80,NW,319,4.0,4.0,89,0.00,,,0.00,Wunderground v.1.15,2013-03-25 10:50:00,
2013-03-25 06:55:00,68.3,64.9,29.80,NW,319,4.0,9.0,89,0.00,,,0.00,Wunderground v.1.15,2013-03-25 10:55:00,
2013-03-25 07:00:00,68.2,64.8,29.80,NW,321,4.0,4.0,89,0.00,,,0.00,Wunderground v.1.15,2013-03-25 11:00:00,
2013-03-25 07:10:00,68.1,64.4,29.81,NW,317,4.0,6.0,88,0.00,,,0.00,Wunderground v.1.15,2013-03-25 11:10:00,
2013-03-25 07:15:00,67.9,64.2,29.82,NW,315,5.0,6.0,88,0.00,,,0.00,Wunderground v.1.15,2013-03-25 11:15:00,
2013-03-25 07:20:00,67.9,64.2,29.81,NW,315,6.0,6.0,88,0.00,,,0.00,Wunderground v.1.15,2013-03-25 11:20:00,
2013-03-25 07:25:00,67.8,64.1,29.81,NW,316,6.0,6.0,88,0.00,,,0.00,Wunderground v.1.15,2013-03-25 11:25:00,
2013-03-25 07:30:00,67.7,64.0,29.81,NW,316,4.0,4.0,88,0.00,,,0.00,Wunderground v.1.15,2013-03-25 11:30:00,
2013-03-25 07:40:00,67.6,64.2,29.82,NNW,331,2.0,2.0,89,0.00,,,0.00,Wunderground v.1.15,2013-03-25 11:40:00,
2013-03-25 07:45:00,67.6,64.6,29.82,NNW,332,2.0,6.0,90,0.00,,,0.00,Wunderground v.1.15,2013-03-25 11:45:00,
2013-03-25 07:50:00,67.6,64.6,29.82,NNW,333,2.0,6.0,90,0.00,,,0.00,Wunderground v.1.15,2013-03-25 11:50:00,
2013-03-25 07:55:00,67.5,64.1,29.83,NW,312,3.0,7.0,89,0.00,,,0.00,Wunderground v.1.15,2013-03-25 11:55:00,
2013-03-25 08:00:00,67.3,63.9,29.84,NW,311,5.0,8.0,89,0.00,,,0.00,Wunderground v.1.15,2013-03-25 12:00:00,
2013-03-25 08:10:00,67.2,64.2,29.85,NW,314,5.0,5.0,90,0.00,,,0.00,Wunderground v.1.15,2013-03-25 12:10:00,
2013-03-25 08:15:00,67.0,63.6,29.85,NW,309,5.0,6.0,89,0.00,,,0.00,Wunderground v.1.15,2013-03-25 12:15:00,
2013-03-25 08:20:00,66.9,63.6,29.86,WNW,302,7.0,12.0,89,0.00,,,0.00,Wunderground v.1.15,2013-03-25 12:20:00,
2013-03-25 08:25:00,66.9,62.9,29.86,WNW,298,9.0,12.0,87,0.00,,,0.00,Wunderground v.1.15,2013-03-25 12:25:00,
2013-03-25 08:30:00,66.9,62.6,29.86,WNW,296,9.0,9.0,86,0.00,,,0.00,Wunderground v.1.15,2013-03-25 12:30:00,
2013-03-25 08:35:00,67.0,62.3,29.86,WNW,291,9.0,11.0,85,0.00,,,0.00,Wunderground v.1.15,2013-03-25 12:35:00,
2013-03-25 08:45:00,67.1,61.4,29.87,NW,317,8.0,9.0,82,0.00,,,0.00,Wunderground v.1.15,2013-03-25 12:45:00,
2013-03-25 08:50:00,67.4,61.4,29.88,NNW,344,7.0,7.0,81,0.00,,,0.00,Wunderground v.1.15,2013-03-25 12:50:00,
2013-03-25 08:55:00,67.4,61.0,29.88,NNW,342,7.0,8.0,80,0.00,,,0.00,Wunderground v.1.15,2013-03-25 12:55:00,
2013-03-25 09:00:00,67.7,61.0,29.89,NW,314,6.0,6.0,79,0.00,,,0.00,Wunderground v.1.15,2013-03-25 13:00:00,
2013-03-25 09:10:00,67.7,61.0,29.90,NNW,330,6.0,6.0,79,0.00,,,0.00,Wunderground v.1.15,2013-03-25 13:10:00,
2013-03-25 09:20:00,67.5,60.0,29.90,NW,316,5.0,10.0,77,0.00,,,0.00,Wunderground v.1.15,2013-03-25 13:20:00,
2013-03-25 09:25:00,67.2,59.7,29.90,NW,323,7.0,10.0,77,0.00,,,0.00,Wunderground v.1.15,2013-03-25 13:25:00,
2013-03-25 09:30:00,67.1,58.9,29.90,NW,309,8.0,10.0,75,0.00,,,0.00,Wunderground v.1.15,2013-03-25 13:30:00,
2013-03-25 09:35:00,67.1,58.2,29.90,NW,317,9.0,13.0,73,0.00,,,0.00,Wunderground v.1.15,2013-03-25 13:35:00,
2013-03-25 09:40:00,67.4,58.8,29.90,NW,321,9.0,9.0,74,0.00,,,0.00,Wunderground v.1.15,2013-03-25 13:40:00,
2013-03-25 09:45:00,68.0,58.6,29.90,NW,323,8.0,9.0,72,0.00,,,0.00,Wunderground v.1.15,2013-03-25 13:45:00,
2013-03-25 09:50:00,68.1,58.3,29.90,NW,307,9.0,10.0,71,0.00,,,0.00,Wunderground v.1.15,2013-03-25 13:50:00,
2013-03-25 09:55:00,67.9,57.8,29.91,NW,323,11.0,11.0,70,0.00,,,0.00,Wunderground v.1.15,2013-03-25 13:55:00,
2013-03-25 10:00:00,68.0,58.2,29.91,NNW,329,10.0,13.0,71,0.00,,,0.00,Wunderground v.1.15,2013-03-25 14:00:00,
2013-03-25 10:10:00,68.4,58.6,29.92,NW,315,5.0,5.0,71,0.00,,,0.00,Wunderground v.1.15,2013-03-25 14:10:00,
2013-03-25 10:15:00,68.8,59.0,29.91,NNW,333,3.0,8.0,71,0.00,,,0.00,Wunderground v.1.15,2013-03-25 14:15:00,
2013-03-25 10:25:00,69.0,58.0,29.92,NNW,329,7.0,13.0,68,0.00,,,0.00,Wunderground v.1.15,2013-03-25 14:25:00,
2013-03-25 10:30:00,68.6,57.6,29.93,NW,315,6.0,13.0,68,0.00,,,0.00,Wunderground v.1.15,2013-03-25 14:30:00,
2013-03-25 10:35:00,68.2,58.0,29.93,NW,316,6.0,13.0,70,0.00,,,0.00,Wunderground v.1.15,2013-03-25 14:35:00,
2013-03-25 10:40:00,68.3,58.1,29.93,NW,321,7.0,7.0,70,0.00,,,0.00,Wunderground v.1.15,2013-03-25 14:40:00,
2013-03-25 10:45:00,68.5,57.9,29.93,NW,306,7.0,11.0,69,0.00,,,0.00,Wunderground v.1.15,2013-03-25 14:45:00,
2013-03-25 10:50:00,68.8,57.8,29.93,NW,311,7.0,7.0,68,0.00,,,0.00,Wunderground v.1.15,2013-03-25 14:50:00,
2013-03-25 10:55:00,68.9,57.1,29.93,WNW,300,8.0,8.0,66,0.00,,,0.00,Wunderground v.1.15,2013-03-25 14:55:00,
2013-03-25 11:00:00,69.3,57.5,29.93,NW,325,7.0,7.0,66,0.00,,,0.00,Wunderground v.1.15,2013-03-25 15:00:00,
2013-03-25 11:10:00,69.8,53.9,29.93,NNW,329,7.0,7.0,57,0.00,,,0.00,Wunderground v.1.15,2013-03-25 15:10:00,
2013-03-25 11:15:00,70.3,53.9,29.94,NW,324,7.0,7.0,56,0.00,,,0.00,Wunderground v.1.15,2013-03-25 15:15:00,
2013-03-25 11:20:00,70.3,55.3,29.94,NW,315,7.0,7.0,59,0.00,,,0.00,Wunderground v.1.15,2013-03-25 15:20:00,
2013-03-25 11:30:00,70.4,53.5,29.93,NW,304,7.0,9.0,55,0.00,,,0.00,Wunderground v.1.15,2013-03-25 15:30:00,
2013-03-25 11:35:00,70.8,54.3,29.93,NNW,327,9.0,9.0,56,0.00,,,0.00,Wunderground v.1.15,2013-03-25 15:35:00,
2013-03-25 11:45:00,71.2,52.7,29.93,NW,314,6.0,8.0,52,0.00,,,0.00,Wunderground v.1.15,2013-03-25 15:45:00,
2013-03-25 11:50:00,71.4,52.3,29.94,NW,319,7.0,11.0,51,0.00,,,0.00,Wunderground v.1.15,2013-03-25 15:50:00,
2013-03-25 11:55:00,71.5,53.5,29.94,NW,309,9.0,11.0,53,0.00,,,0.00,Wunderground v.1.15,2013-03-25 15:55:00,
2013-03-25 12:00:00,71.6,54.6,29.93,NNW,335,8.0,8.0,55,0.00,,,0.00,Wunderground v.1.15,2013-03-25 16:00:00,
2013-03-25 12:10:00,71.6,54.1,29.93,NNW,347,6.0,6.0,54,0.00,,,0.00,Wunderground v.1.15,2013-03-25 16:10:00,
2013-03-25 12:15:00,71.9,53.8,29.93,NNW,327,6.0,9.0,53,0.00,,,0.00,Wunderground v.1.15,2013-03-25 16:15:00,
2013-03-25 12:20:00,72.3,53.7,29.93,NW,323,6.0,6.0,52,0.00,,,0.00,Wunderground v.1.15,2013-03-25 16:20:00,
2013-03-25 12:25:00,72.7,54.1,29.94,NW,313,5.0,8.0,52,0.00,,,0.00,Wunderground v.1.15,2013-03-25 16:25:00,
2013-03-25 12:30:00,73.3,53.5,29.93,NW,312,6.0,6.0,50,0.00,,,0.00,Wunderground v.1.15,2013-03-25 16:30:00,
2013-03-25 12:40:00,73.3,54.1,29.93,NW,319,5.0,9.0,51,0.00,,,0.00,Wunderground v.1.15,2013-03-25 16:40:00,
2013-03-25 12:45:00,73.4,51.4,29.93,NW,311,7.0,19.0,46,0.00,,,0.00,Wunderground v.1.15,2013-03-25 16:45:00,
2013-03-25 12:50:00,73.2,51.2,29.93,NW,319,8.0,8.0,46,0.00,,,0.00,Wunderground v.1.15,2013-03-25 16:50:00,
2013-03-25 12:55:00,73.5,51.4,29.93,NNW,330,6.0,9.0,46,0.00,,,0.00,Wunderground v.1.15,2013-03-25 16:55:00,
2013-03-25 13:00:00,73.8,51.1,29.93,NW,315,7.0,12.0,45,0.00,,,0.00,Wunderground v.1.15,2013-03-25 17:00:00,
2013-03-25 13:10:00,73.4,51.4,29.93,NW,313,9.0,12.0,46,0.00,,,0.00,Wunderground v.1.15,2013-03-25 17:10:00,
2013-03-25 13:15:00,73.7,51.0,29.93,NW,305,8.0,12.0,45,0.00,,,0.00,Wunderground v.1.15,2013-03-25 17:15:00,
2013-03-25 13:20:00,74.2,50.9,29.92,NW,309,7.0,7.0,44,0.00,,,0.00,Wunderground v.1.15,2013-03-25 17:20:00,
2013-03-25 13:25:00,74.6,51.2,29.92,NW,315,8.0,8.0,44,0.00,,,0.00,Wunderground v.1.15,2013-03-25 17:25:00,
2013-03-25 13:30:00,75.4,52.0,29.92,NW,305,6.0,12.0,44,0.00,,,0.00,Wunderground v.1.15,2013-03-25 17:30:00,
2013-03-25 13:35:00,75.5,50.8,29.92,NW,307,5.0,12.0,42,0.00,,,0.00,Wunderground v.1.15,2013-03-25 17:35:00,
2013-03-25 13:40:00,75.1,51.7,29.92,NW,311,6.0,12.0,44,0.00,,,0.00,Wunderground v.1.15,2013-03-25 17:40:00,
2013-03-25 13:45:00,75.0,52.2,29.92,WNW,301,8.0,12.0,45,0.00,,,0.00,Wunderground v.1.15,2013-03-25 17:45:00,
2013-03-25 13:50:00,75.1,52.9,29.92,NNW,329,7.0,7.0,46,0.00,,,0.00,Wunderground v.1.15,2013-03-25 17:50:00,
2013-03-25 13:55:00,75.5,52.7,29.91,NW,316,5.0,12.0,45,0.00,,,0.00,Wunderground v.1.15,2013-03-25 17:55:00,
2013-03-25 14:01:00,75.5,53.3,29.91,NW,316,5.0,5.0,46,0.00,,,0.00,Wunderground v.1.15,2013-03-25 18:01:00,
2013-03-25 14:10:00,76.3,53.4,29.91,NW,306,6.0,9.0,45,0.00,,,0.00,Wunderground v.1.15,2013-03-25 18:10:00,
2013-03-25 14:20:00,76.2,51.4,29.91,NNW,338,7.0,12.0,42,0.00,,,0.00,Wunderground v.1.15,2013-03-25 18:20:00,
2013-03-25 14:25:00,76.4,52.9,29.91,WNW,296,7.0,10.0,44,0.00,,,0.00,Wunderground v.1.15,2013-03-25 18:25:00,
2013-03-25 14:30:00,76.4,52.2,29.90,North,355,6.0,10.0,43,0.00,,,0.00,Wunderground v.1.15,2013-03-25 18:30:00,
2013-03-25 14:35:00,76.2,51.4,29.90,NNW,327,6.0,6.0,42,0.00,,,0.00,Wunderground v.1.15,2013-03-25 18:35:00,
2013-03-25 14:45:00,76.0,51.2,29.90,NW,319,8.0,10.0,42,0.00,,,0.00,Wunderground v.1.15,2013-03-25 18:45:00,
2013-03-25 14:55:00,76.4,49.6,29.89,NW,325,6.0,6.0,39,0.00,,,0.00,Wunderground v.1.15,2013-03-25 18:55:00,
2013-03-25 15:00:00,76.6,50.5,29.89,NW,311,6.0,13.0,40,0.00,,,0.00,Wunderground v.1.15,2013-03-25 19:00:00,
2013-03-25 15:10:00,77.2,51.0,29.90,NW,304,6.0,6.0,40,0.00,,,0.00,Wunderground v.1.15,2013-03-25 19:10:00,
2013-03-25 15:15:00,76.5,50.4,29.89,WNW,302,6.0,9.0,40,0.00,,,0.00,Wunderground v.1.15,2013-03-25 19:15:00,
2013-03-25 15:20:00,77.2,51.0,29.89,NW,317,6.0,6.0,40,0.00,,,0.00,Wunderground v.1.15,2013-03-25 19:20:00,
2013-03-25 15:30:00,75.9,46.3,29.89,NW,324,11.0,11.0,35,0.00,,,0.00,Wunderground v.1.15,2013-03-25 19:30:00,
2013-03-25 15:35:00,76.7,43.8,29.89,NW,320,10.0,13.0,31,0.00,,,0.00,Wunderground v.1.15,2013-03-25 19:35:00,
2013-03-25 15:40:00,76.7,42.9,29.88,NW,311,10.0,10.0,30,0.00,,,0.00,Wunderground v.1.15,2013-03-25 19:40:00,
2013-03-25 15:45:00,76.7,43.8,29.89,NW,314,9.0,13.0,31,0.00,,,0.00,Wunderground v.1.15,2013-03-25 19:45:00,
2013-03-25 15:50:00,77.0,44.9,29.89,NW,321,7.0,13.0,32,0.00,,,0.00,Wunderground v.1.15,2013-03-25 19:50:00,
2013-03-25 16:00:00,77.4,46.0,29.88,NW,325,9.0,9.0,33,0.00,,,0.00,Wunderground v.1.15,2013-03-25 20:00:00,
2013-03-25 16:10:00,77.0,46.5,29.88,NW,315,9.0,9.0,34,0.00,,,0.00,Wunderground v.1.15,2013-03-25 20:10:00,
2013-03-25 16:15:00,77.6,44.6,29.87,NW,307,7.0,13.0,31,0.00,,,0.00,Wunderground v.1.15,2013-03-25 20:15:00,
2013-03-25 16:20:00,77.8,44.7,29.87,NW,322,8.0,12.0,31,0.00,,,0.00,Wunderground v.1.15,2013-03-25 20:20:00,
2013-03-25 16:25:00,77.0,44.0,29.87,NW,308,9.0,12.0,31,0.00,,,0.00,Wunderground v.1.15,2013-03-25 20:25:00,
2013-03-25 16:35:00,78.1,40.4,29.88,NNW,337,9.0,12.0,26,0.00,,,0.00,Wunderground v.1.15,2013-03-25 20:35:00,
2013-03-25 16:40:00,77.6,37.9,29.88,NW,315,9.0,14.0,24,0.00,,,0.00,Wunderground v.1.15,2013-03-25 20:40:00,
2013-03-25 16:50:00,77.2,39.6,29.89,NNW,335,13.0,13.0,26,0.00,,,0.00,Wunderground v.1.15,2013-03-25 20:50:00,
2013-03-25 16:55:00,77.4,37.8,29.88,NW,304,10.0,13.0,24,0.00,,,0.00,Wunderground v.1.15,2013-03-25 20:55:00,
2013-03-25 17:00:00,77.1,39.6,29.88,NNW,328,8.0,20.0,26,0.00,,,0.00,Wunderground v.1.15,2013-03-25 21:00:00,
2013-03-25 17:10:00,76.5,39.0,29.89,WNW,300,11.0,20.0,26,0.00,,,0.00,Wunderground v.1.15,2013-03-25 21:10:00,
2013-03-25 17:15:00,76.7,40.2,29.89,WNW,294,12.0,20.0,27,0.00,,,0.00,Wunderground v.1.15,2013-03-25 21:15:00,
2013-03-25 17:20:00,77.3,39.7,29.90,NW,318,10.0,10.0,26,0.00,,,0.00,Wunderground v.1.15,2013-03-25 21:20:00,
2013-03-25 17:25:00,77.3,40.7,29.90,NW,322,9.0,20.0,27,0.00,,,0.00,Wunderground v.1.15,2013-03-25 21:25:00,
2013-03-25 17:35:00,75.8,39.4,29.91,NW,318,10.0,20.0,27,0.00,,,0.00,Wunderground v.1.15,2013-03-25 21:35:00,
2013-03-25 17:40:00,74.8,35.6,29.91,NW,316,12.0,20.0,24,0.00,,,0.00,Wunderground v.1.15,2013-03-25 21:40:00,
2013-03-25 17:45:00,74.3,36.2,29.92,WNW,294,14.0,20.0,25,0.00,,,0.00,Wunderground v.1.15,2013-03-25 21:45:00,
2013-03-25 17:50:00,74.0,34.9,29.92,WNW,301,13.0,13.0,24,0.00,,,0.00,Wunderground v.1.15,2013-03-25 21:50:00,
2013-03-25 18:00:00,74.2,35.1,29.92,NW,315,10.0,22.0,24,0.00,,,0.00,Wunderground v.1.15,2013-03-25 22:00:00,
2013-03-25 18:10:00,74.1,33.9,29.92,NW,311,11.0,11.0,23,0.00,,,0.00,Wunderground v.1.15,2013-03-25 22:10:00,
2013-03-25 18:15:00,74.2,32.9,29.92,NW,325,9.0,22.0,22,0.00,,,0.00,Wunderground v.1.15,2013-03-25 22:15:00,
2013-03-25 18:20:00,74.4,33.1,29.93,NW,319,9.0,22.0,22,0.00,,,0.00,Wunderground v.1.15,2013-03-25 22:20:00,
2013-03-25 18:25:00,74.3,33.0,29.93,NNW,339,9.0,22.0,22,0.00,,,0.00,Wunderground v.1.15,2013-03-25 22:25:00,
2013-03-25 18:30:00,73.9,32.6,29.93,NW,321,11.0,22.0,22,0.00,,,0.00,Wunderground v.1.15,2013-03-25 22:30:00,
2013-03-25 18:40:00,72.8,32.8,29.93,NW,315,12.0,22.0,23,0.00,,,0.00,Wunderground v.1.15,2013-03-25 22:40:00,
2013-03-25 18:50:00,72.1,32.2,29.94,NW,313,10.0,22.0,23,0.00,,,0.00,Wunderground v.1.15,2013-03-25 22:50:00,
2013-03-25 18:55:00,71.8,32.0,29.94,NNW,327,10.0,22.0,23,0.00,,,0.00,Wunderground v.1.15,2013-03-25 22:55:00,
2013-03-25 19:00:00,71.7,31.9,29.95,NW,312,10.0,13.0,23,0.00,,,0.00,Wunderground v.1.15,2013-03-25 23:00:00,
2013-03-25 19:10:00,71.1,30.3,29.94,West,281,8.0,13.0,22,0.00,,,0.00,Wunderground v.1.15,2013-03-25 23:10:00,
2013-03-25 19:15:00,70.6,32.0,29.94,NW,323,8.0,13.0,24,0.00,,,0.00,Wunderground v.1.15,2013-03-25 23:15:00,
2013-03-25 19:20:00,70.2,32.7,29.95,WNW,302,7.0,13.0,25,0.00,,,0.00,Wunderground v.1.15,2013-03-25 23:20:00,
2013-03-25 19:30:00,69.2,33.8,29.96,WNW,301,9.0,13.0,27,0.00,,,0.00,Wunderground v.1.15,2013-03-25 23:30:00,
2013-03-25 19:35:00,68.6,34.2,29.96,NW,311,9.0,13.0,28,0.00,,,0.00,Wunderground v.1.15,2013-03-25 23:35:00,
2013-03-25 19:40:00,68.2,35.6,29.96,WNW,302,8.0,13.0,30,0.00,,,0.00,Wunderground v.1.15,2013-03-25 23:40:00,
2013-03-25 19:50:00,67.5,35.8,29.97,NW,309,8.0,13.0,31,0.00,,,0.00,Wunderground v.1.15,2013-03-25 23:50:00,
2013-03-25 19:55:00,67.2,35.5,29.97,NW,313,8.0,13.0,31,0.00,,,0.00,Wunderground v.1.15,2013-03-25 23:55:00,
2013-03-25 20:00:00,66.8,36.0,29.98,NW,311,7.0,7.0,32,0.00,,,0.00,Wunderground v.1.15,2013-03-26 00:00:00,
2013-03-25 20:10:00,66.1,35.4,29.97,NW,304,8.0,9.0,32,0.00,,,0.00,Wunderground v.1.15,2013-03-26 00:10:00,
2013-03-25 20:20:00,65.4,36.3,29.98,NW,306,8.0,9.0,34,0.00,,,0.00,Wunderground v.1.15,2013-03-26 00:20:00,
2013-03-25 20:30:00,64.8,36.5,29.99,NW,305,8.0,9.0,35,0.00,,,0.00,Wunderground v.1.15,2013-03-26 00:30:00,
2013-03-25 20:35:00,64.7,36.4,29.99,NW,306,9.0,9.0,35,0.00,,,0.00,Wunderground v.1.15,2013-03-26 00:35:00,
2013-03-25 20:40:00,64.4,36.8,29.99,NW,305,8.0,9.0,36,0.00,,,0.00,Wunderground v.1.15,2013-03-26 00:40:00,
2013-03-25 20:45:00,64.2,36.7,30.00,NW,315,9.0,13.0,36,0.00,,,0.00,Wunderground v.1.15,2013-03-26 00:45:00,
2013-03-25 20:50:00,64.1,36.6,30.00,NW,306,9.0,9.0,36,0.00,,,0.00,Wunderground v.1.15,2013-03-26 00:50:00,
2013-03-25 20:55:00,63.9,37.1,29.99,WNW,303,9.0,9.0,37,0.00,,,0.00,Wunderground v.1.15,2013-03-26 00:55:00,
2013-03-25 21:00:00,63.3,37.2,29.99,NW,313,9.0,9.0,38,0.00,,,0.00,Wunderground v.1.15,2013-03-26 01:00:00,
2013-03-25 21:10:00,62.8,37.5,29.99,NNW,334,7.0,11.0,39,0.00,,,0.00,Wunderground v.1.15,2013-03-26 01:10:00,
2013-03-25 21:15:00,62.5,37.8,29.99,NNW,327,7.0,11.0,40,0.00,,,0.00,Wunderground v.1.15,2013-03-26 01:15:00,
2013-03-25 21:20:00,62.3,37.7,30.00,NW,319,7.0,11.0,40,0.00,,,0.00,Wunderground v.1.15,2013-03-26 01:20:00,
2013-03-25 21:25:00,62.0,38.0,30.00,NW,305,8.0,11.0,41,0.00,,,0.00,Wunderground v.1.15,2013-03-26 01:25:00,
2013-03-25 21:35:00,61.6,37.0,30.01,NW,311,9.0,11.0,40,0.00,,,0.00,Wunderground v.1.15,2013-03-26 01:35:00,
2013-03-25 21:45:00,61.1,36.6,30.01,NW,309,8.0,11.0,40,0.00,,,0.00,Wunderground v.1.15,2013-03-26 01:45:00,
2013-03-25 21:50:00,61.1,36.6,30.02,NW,315,8.0,8.0,40,0.00,,,0.00,Wunderground v.1.15,2013-03-26 01:50:00,
2013-03-25 21:55:00,60.9,36.4,30.02,NW,310,8.0,10.0,40,0.00,,,0.00,Wunderground v.1.15,2013-03-26 01:55:00,
2013-03-25 22:00:00,60.8,35.0,30.02,NW,306,9.0,9.0,38,0.00,,,0.00,Wunderground v.1.15,2013-03-26 02:00:00,
2013-03-25 22:10:00,60.7,34.9,30.03,NW,306,10.0,10.0,38,0.00,,,0.00,Wunderground v.1.15,2013-03-26 02:10:00,
2013-03-25 22:15:00,60.5,34.7,30.03,NW,307,10.0,14.0,38,0.00,,,0.00,Wunderground v.1.15,2013-03-26 02:15:00,
2013-03-25 22:20:00,60.4,34.7,30.04,WNW,300,9.0,9.0,38,0.00,,,0.00,Wunderground v.1.15,2013-03-26 02:20:00,
2013-03-25 22:25:00,60.3,35.2,30.04,NW,304,9.0,10.0,39,0.00,,,0.00,Wunderground v.1.15,2013-03-26 02:25:00,
2013-03-25 22:30:00,60.1,35.0,30.05,WNW,296,9.0,14.0,39,0.00,,,0.00,Wunderground v.1.15,2013-03-26 02:30:00,
2013-03-25 22:40:00,59.6,35.2,30.05,NW,304,8.0,14.0,40,0.00,,,0.00,Wunderground v.1.15,2013-03-26 02:40:00,
2013-03-25 22:45:00,59.3,35.6,30.05,WNW,301,8.0,14.0,41,0.00,,,0.00,Wunderground v.1.15,2013-03-26 02:45:00,
2013-03-25 22:50:00,59.1,36.0,30.05,NW,311,8.0,8.0,42,0.00,,,0.00,Wunderground v.1.15,2013-03-26 02:50:00,
2013-03-25 22:55:00,58.8,36.3,30.05,NW,307,8.0,10.0,43,0.00,,,0.00,Wunderground v.1.15,2013-03-26 02:55:00,
2013-03-25 23:00:00,58.7,36.2,30.05,WNW,291,8.0,8.0,43,0.00,,,0.00,Wunderground v.1.15,2013-03-26 03:00:00,
2013-03-25 23:10:00,58.8,36.9,30.05,NW,313,7.0,14.0,44,0.00,,,0.00,Wunderground v.1.15,2013-03-26 03:10:00,
2013-03-25 23:15:00,58.7,36.8,30.05,WNW,302,7.0,14.0,44,0.00,,,0.00,Wunderground v.1.15,2013-03-26 03:15:00,
2013-03-25 23:20:00,58.8,36.9,30.06,NW,307,7.0,14.0,44,0.00,,,0.00,Wunderground v.1.15,2013-03-26 03:20:00,
2013-03-25 23:25:00,58.4,37.1,30.06,NW,309,7.0,14.0,45,0.00,,,0.00,Wunderground v.1.15,2013-03-26 03:25:00,
2013-03-25 23:30:00,58.2,36.9,30.05,NW,309,7.0,14.0,45,0.00,,,0.00,Wunderground v.1.15,2013-03-26 03:30:00,
2013-03-25 23:35:00,58.1,36.9,30.05,NW,306,7.0,14.0,45,0.00,,,0.00,Wunderground v.1.15,2013-03-26 03:35:00,
2013-03-25 23:40:00,58.1,37.4,30.05,NW,306,7.0,7.0,46,0.00,,,0.00,Wunderground v.1.15,2013-03-26 03:40:00,
2013-03-25 23:50:00,57.5,37.9,30.06,WNW,303,7.0,14.0,48,0.00,,,0.00,Wunderground v.1.15,2013-03-26 03:50:00,
2013-03-25 23:55:00,57.4,38.4,30.05,NW,304,7.0,14.0,49,0.00,,,0.00,Wunderground v.1.15,2013-03-26 03:55:00,